Location: Carrigahorig
(53.0625°N, 8.1439°W)
Time: 03:07:53
(UTC+00:00)

Cosmos 1933 - Pass Details

Date: 15 May 2026
Orbit: 508 x 512 km, 82.5° (Epoch: 8 June)

Event Time Altitude Azimuth Distance (km) Brightness Sun altitude
Exits shadow 21:19:39 - 168° (SSE) 2,128 5.8 -7.1°
Reaches altitude 10° 21:20:39 10° 164° (SSE) 1,731 5.3 -7.3°
Maximum altitude 21:24:13 41° 94° (E) 752 3.7 -7.6°
Drops below altitude 10° 21:27:51 10° 23° (NNE) 1,748 6.2 -8.0°
Sets 21:30:03 0° 17° (NNE) 2,641 7.3 -8.2°
